Location: Chautauqua County Fairgrounds
(37.1349°N, 96.1922°W)
Time: 20:14:55
(UTC+00:00)

Daily predictions for brighter satellites

Satellite Brightness Start Highest point End
(mag) Time Altitude Azimuth Time Altitude Azimuth Time Altitude Azimuth
Envisat 3.8 12:00:48 10° NNE 12:05:48 56° E 12:10:46 10° S
deb Chang Zheng 4 4.5 12:03:26 10° NNW 12:07:04 27° WNW 12:10:41 10° SW
SWAS 4.3 12:03:35 10° NNW 12:07:49 79° WSW 12:12:04 10° SSE
SKYMED 2 3.8 12:04:02 10° S 12:08:14 49° W 12:12:27 10° NNW
Meteor 1-4 Rocket 2.6 12:11:07 10° N 12:14:35 75° E 12:18:00 10° SSE
Cosmos 2084 3.9 12:10:27 10° NNW 12:14:54 64° NE 12:19:22 10° SE
USA 234 3.4 12:09:32 10° NE 12:15:52 55° NW 12:22:12 10° WSW
ATLAS 2AS CENTAUR R/B 3.0 12:08:07 10° SW 12:16:01 76° WNW 12:23:59 10° NNE
Cosmos 1515 Rocket 4.4 12:12:19 10° N 12:16:42 54° E 12:21:03 10° SSE
H-2A R/B 2.7 12:14:33 10° NNE 12:18:24 65° ESE 12:22:11 10° S
USA 276 3.1 12:18:15 17° W 12:20:05 31° SW 12:22:55 10° SSE
Delta 2 Rocket 3.9 12:16:39 14° W 12:20:29 53° SSW 12:24:30 10° ESE
Okean O Rocket 3.4 12:16:22 10° NNE 12:20:29 37° E 12:24:36 10° SSE
CENTAUR R/B 3.3 12:14:13 10° NW 12:22:38 81° WSW 12:31:32 10° SSE
ERBS 4.1 12:22:27 14° NW 12:23:17 15° NW 12:25:17 10° N
H-2A R/B 2.9 12:20:17 10° N 12:24:05 52° WNW 12:27:52 10° SSW
Meteor 1-26 Rocket 4.2 12:21:05 10° NNW 12:26:53 70° W 12:32:28 10° S
Spot 2 4.5 12:24:46 10° N 12:29:54 69° WNW 12:34:57 10° SSW
SL-16 R/B 3.9 12:28:21 11° WNW 12:30:12 12° W 12:32:28 10° WSW
CZ-4C R/B 2.0 12:25:59 10° SSW 12:30:40 84° ESE 12:36:14 10° NNE
Cosmos 923 Rocket 4.3 12:25:59 10° NNW 12:31:17 76° ENE 12:36:35 10° SSE
MOS 1-B 4.4 12:26:19 10° NNE 12:32:10 88° ESE 12:37:59 10° SSW
Cosmos 1933 4.1 12:28:42 10° NNW 12:32:22 32° W 12:36:01 10° SSW
Cosmos 1633 3.8 12:33:41 10° SW 12:36:19 20° WNW 12:38:57 10° NNW
SMAP 3.6 12:31:55 10° NNE 12:36:34 67° ESE 12:41:11 10° S
Cosmos 1500 Rocket 3.7 12:32:33 10° S 12:36:51 81° E 12:41:10 10° N
CZ-4B DEB 4.2 12:31:51 10° N 12:37:19 74° WNW 12:42:45 10° SSW
RESURS DK-1 2.7 12:36:54 10° SSW 12:41:00 73° ESE 12:45:10 10° NNE
ASTRO E2 3.9 12:37:43 10° WSW 12:41:22 35° S 12:45:01 10° ESE
YAOGAN 6 2.6 12:38:21 10° N 12:41:47 51° WNW 12:45:09 10° SSW
Cosmos 1151 Rocket 3.7 12:40:38 10° NNW 12:44:25 32° W 12:48:11 10° SSW
PSLV R/B 4.3 12:40:54 10° N 12:44:30 36° WNW 12:48:00 10° SW
Cosmos 1844 Rocket 3.0 12:39:03 10° SSW 12:44:39 78° ESE 12:50:19 10° NNE
USA 238 DEB 4.4 12:38:06 10° NW 12:44:53 41° WSW 12:51:50 10° S
USA 238 4.4 12:38:12 10° NW 12:44:59 41° WSW 12:51:56 10° S
USA 267 4.4 23:29:53 10° ENE 23:34:47 23° NNE 23:39:41 10° NNW
Cosmos 1606 3.8 23:33:32 10° SSE 23:36:45 25° E 23:40:00 10° NE
SMAP 3.2 23:32:44 10° SSE 23:37:14 52° ENE 23:41:46 10° N
Nadezhda 1 Rocket 4.0 23:36:33 10° S 23:42:49 77° E 23:49:12 10° N
BREEZE-M DEB (TANK) 2.8 23:41:30 10° WSW 23:45:18 47° NW 23:47:17 10° NE
SL-16 R/B 3.1 23:47:43 10° SSE 23:52:26 28° ESE 23:57:10 10° NE
Lacrosse 5 rocket 2.7 23:51:10 10° SSE 23:53:48 19° ESE 23:55:53 12° E
Abrixas rocket 3.2 23:52:01 10° NNW 23:54:17 22° NNE 23:55:50 14° ENE
Cosmos 2292 4.3 23:52:56 10° S 23:55:55 80° W 23:59:11 10° N
Cosmos 1862 3.3 23:51:55 10° N 23:55:58 86° E 23:59:58 10° S
